Regional Weather Roundup
Issued by NWS Kansas City/Pleasant Hill, MO

Home | Current Version | Previous Version | Graphics & Text | Print | Product List | Glossary Off
Versions: 1 2 3 4 5 6 7 8 9 10 11 12 13 14 15 16 17 18 19 20 21 22 23 24 25 26 27 28 29 30 31 32 33 34 35 36 37 38 39 40 41 42 43 44 45 46 47 48 49 50

000
ASUS43 KEAX 210810
RWREAX

WEATHER ROUNDUP FOR EASTERN KANSAS AND NORTHWEST MISSOURI
NATIONAL WEATHER SERVICE KANSAS CITY/PLEASANT HILL MO
300 AM CDT SAT APR 21 2018

KSZ040-057-103>105-MOZ028-029-037-043-210900-
...KANSAS CITY METROPOLITAN AREA...

CITY           SKY/WX    TMP DP  RH WIND       PRES   REMARKS
K.C. INTL      CLOUDY    51  23  33 E13       30.26F
K.C. DOWNTOWN  CLOUDY    53  25  33 E3        30.27S
LEES SUMMIT    CLOUDY    51  26  37 E9        30.27S
OLATHE - IXD   CLOUDY    52  25  35 E8        30.25F
OLATHE - OJC   CLOUDY    50  25  37 E7        30.26S
LAWRENCE       CLOUDY    52  25  35 E7        30.25F

$$

MOZ001>008-011>017-020>025-030>033-038>040-044>046-053-054-210900-
...NORTHERN AND CENTRAL MISSOURI...

CITY           SKY/WX    TMP DP  RH WIND       PRES   REMARKS
ST. JOSEPH     CLOUDY    52  23  32 E13       30.28F
MOSBY          CLOUDY    52  23  32 E8        30.30R
WARRENSBURG    CLOUDY    50  27  40 E3        30.29R
WHITEMAN AFB   CLOUDY    51  26  38 SE3       30.26R
CLINTON        MOCLDY    50  32  50 N3        30.29R
SEDALIA        PTCLDY    51  27  39 E5        30.30R
WARSAW         NOT AVBL
CHILLICOTHE      N/A     50  24  36 E5        30.33F
KIRKSVILLE     CLOUDY    46  26  45 E3        30.34R

$$

MOZ041-047>049-056>058-063>065-088>090-097-210900-
...EASTERN AND SOUTHERN MISSOURI...

CITY           SKY/WX    TMP DP  RH WIND       PRES   REMARKS
ST. LOUIS INTL MOCLDY    47  27  45 E6        30.33S
SPIRIT OF STL  CLOUDY    39  34  82 CALM      30.32S
COLUMBIA       CLOUDY    49  24  37 E8        30.30S
JEFFERSON CITY CLOUDY    49  25  39 E6        30.30S
ROLLA          CLOUDY    46  24  42 E6        30.30S
OSAGE BEACH    PTCLDY    51  26  37 E7        30.28S
SPRINGFIELD    CLOUDY    54  26  34 SE9       30.22F
BRANSON        CLOUDY    48  27  43 E6        30.24S
JOPLIN         CLOUDY    54  24  31 CALM      30.26R
WEST PLAINS    CLOUDY    46  26  45 NE6       30.26F

$$

IAZ060-094-KSZ022-034>040-054-083-096-NEZ052-066-093-210900-
...KANSAS...SOUTHEAST NEBRASKA AND IOWA...

CITY           SKY/WX    TMP DP  RH WIND       PRES   REMARKS
TOPEKA         CLOUDY    52  27  38 E6        30.25S
MANHATTAN      CLOUDY    54  26  34 NE10      30.21S
EMPORIA        CLOUDY    52  29  41 E13       30.17F
CHANUTE        CLOUDY    55  25  31 E12       30.19F
WICHITA        LGT RAIN  51  41  68 SE8       30.16R
OMAHA          CLOUDY    51  28  41 NE6       30.33F
LINCOLN        CLOUDY    51  27  39 E10       30.28F
FALLS CITY     CLOUDY    48  26  42 E8        30.29S
LAMONI         CLOUDY    47  24  40 E3        30.33S
DES MOINES     CLOUDY    49  25  39 N5        30.37R

$$




USA.gov is the U.S. government's official web portal to all federal, state and local government web resources and services.